Location: Unspecified
(37.6100°N, 2.7800°W)
Time: 12:22:32
(UTC+00:00)

OTV 5 (USA 277) - Visible Passes

Search period start: 23 June 2018 00:00
Search period end: 03 July 2018 00:00
Orbit: 313 x 320 km, 54.5° (Epoch: 21 June)

Date Brightness Start Highest point End Pass type
(mag) Time Alt. Az. Time Alt. Az. Time Alt. Az.
27 Jun ? 23:06:40 10° NNW 23:06:52 11° NNW 23:06:52 11° NNW visible
29 Jun ? 22:01:42 10° N 22:03:04 14° NNE 22:03:04 14° NNE visible
30 Jun ? 22:15:23 10° NNW 22:16:39 21° N 22:16:39 21° N visible
01 Jul ? 22:29:38 10° NW 22:30:17 16° NW 22:30:17 16° NW visible
02 Jul ? 21:10:14 10° NNW 21:12:22 20° NE 21:13:07 18° ENE visible
